Location: Asheville, NC
(35.6000°N, 82.5500°W)
Time: 20:21:11
(UTC-04:00)

Vanguard 3 - Pass Details

Date: 08 March 2018
Orbit: 508 x 3264 km, 33.3° (Epoch: 24 June)

Event Time Altitude Azimuth Distance (km) Brightness Sun altitude
Rises 10:34:46 0° 244° (WSW) 7,103 11.8 40.0°
Reaches altitude 10° 10:39:56 10° 242° (WSW) 5,885 11.5 40.7°
Maximum altitude 10:56:49 67° 165° (SSE) 2,289 10.8 42.9°
Drops below altitude 10° 11:06:37 10° 85° (E) 3,602 10.9 44.0°
Sets 11:09:01 0° 82° (E) 4,294 11.1 44.3°
